Flag for U.S.A. Weather past 2 weeks in Chico, California, U.S.A.

Now
72 °F

Clear.


Feels Like: 77 °F
Forecast: 69 / 103 °F
Wind: No wind

Location: Chico Municipal

Current Time: Jul 30, 2014 at 6:50:02 AM

Latest Report: Jul 30, 2014 at 6:15 AM


Visibility: 10 mi

Pressure: 29.94 "Hg

Humidity: 38%

Dew point: 45 °F

Location of ChicoLocation

Historic Weather in Chico — Graph

°F

Chico temperature yesterday

Maximum temperature yesterday: 99 °F (at 6:55 PM)
Minimum temperature yesterday: 72 °F (at 4:15 AM)
Average temperature yesterday: 83 °F

Past Weeks' High & Low Weather Summary

 TemperatureHumidityPressure
High100 °F (Jul 25, 4:54 PM)78% (Jul 23, 3:35 AM)30.13 "Hg (Jul 23, 3:35 AM)
Low63 °F (Jul 23, 5:35 AM)9% (Jul 25, 6:55 PM)29.77 "Hg (Jul 25, 6:55 PM)
Average79 °F39%29.91 "Hg
* Reported Jul 15 5:15 AM — Jul 30 5:35 AM, Chico, Weather by CustomWeather, © 2014

Note: Actual official high and low records may vary slightly from our data, if they occured in-between our weather recording intervals... More about our weather records

Advertising

Chico weather history for previous 24 hours

 ConditionsComfort  
Time TempWeatherWind HumidityBarometerVisibility
5:35 AM
Jul 30
75 °FClear.No wind29%29.93 "Hg10 mi
5:15 AM75 °FClear.5 mph29%29.93 "Hg10 mi
4:55 AM75 °FPassing clouds.6 mph29%29.93 "Hg10 mi
4:35 AM77 °FPassing clouds.3 mph28%29.93 "Hg10 mi
4:15 AM77 °FOvercast.No wind26%29.93 "Hg10 mi
3:55 AM77 °FOvercast.No wind28%29.94 "Hg10 mi
3:35 AM79 °FOvercast.5 mph30%29.94 "Hg10 mi
3:15 AM77 °FPassing clouds.6 mph34%29.93 "Hg10 mi
2:55 AM77 °FPassing clouds.No wind36%29.93 "Hg10 mi
2:35 AM75 °FPassing clouds.3 mph47%29.92 "Hg10 mi
2:15 AM75 °FPassing clouds.3 mph47%29.92 "Hg10 mi
1:55 AM75 °FClear.No wind41%29.92 "Hg10 mi
1:35 AM82 °FClear.No wind23%29.92 "Hg10 mi
1:15 AM82 °FClear.3 mph23%29.92 "Hg10 mi
12:55 AM82 °FClear.6 mph25%29.91 "Hg10 mi
12:35 AM82 °FClear.6 mph25%29.92 "Hg10 mi
12:15 AM84 °FClear.No wind25%29.92 "Hg10 mi
11:55 PM
Jul 29
84 °FClear.No wind27%29.92 "Hg10 mi
11:35 PM84 °FClear.No wind27%29.92 "Hg10 mi
11:15 PM86 °FClear.6 mph25%29.92 "Hg10 mi
10:55 PM88 °FClear.3 mph25%29.92 "Hg10 mi
10:35 PM88 °FClear.No wind25%29.92 "Hg10 mi
10:15 PM90 °FPassing clouds.5 mph24%29.92 "Hg10 mi
9:55 PM90 °FPassing clouds.9 mph26%29.92 "Hg10 mi
9:15 PM91 °FSunny.8 mph28%29.91 "Hg10 mi
8:55 PM91 °FSunny.6 mph28%29.90 "Hg10 mi
8:35 PM93 °FSunny.6 mph26%29.90 "Hg10 mi
8:15 PM93 °FSunny.7 mph24%29.89 "Hg10 mi
7:55 PM95 °FSunny.7 mph23%29.89 "Hg10 mi
7:35 PM95 °FSunny.8 mph22%29.88 "Hg10 mi
7:15 PM97 °FSunny.10 mph17%29.88 "Hg10 mi
6:55 PM99 °FSunny.10 mph16%29.88 "Hg10 mi
4:56 PM97 °FScattered clouds.12 mph17%29.90 "Hg40 mi
3:50 PM95 °FScattered clouds.14 mph19%29.92 "Hg40 mi
2:47 PM95 °FScattered clouds.14 mph15%29.95 "Hg40 mi
1:49 PM95 °FScattered clouds.12 mph20%29.96 "Hg40 mi
12:50 PM93 °FScattered clouds.12 mph26%29.99 "Hg40 mi
11:47 AM90 °FScattered clouds.9 mph24%30.00 "Hg40 mi
10:50 AM86 °FScattered clouds.9 mph27%30.02 "Hg40 mi
9:48 AM81 °FScattered clouds.9 mph30%30.02 "Hg40 mi
8:54 AM77 °FScattered clouds.9 mph34%30.03 "Hg40 mi
7:50 AM77 °FPartly sunny.7 mph32%30.02 "Hg40 mi
6:55 AM73 °FPassing clouds.5 mph33%30.03 "Hg40 mi
6:35 AM72 °FPassing clouds.No wind36%30.02 "Hg10 mi
6:15 AM72 °FPassing clouds.No wind36%30.02 "Hg10 mi
Weather by CustomWeather, © 2014

See weather overviewHow to use our weather pages